Theta_e
321 315 309 308 314 315 316 316 316 315 316 314 314 317 319 329 332 332 332 335 340 355 355 354 354 353 353 349 347 344 341 342
313 310 313 312 314 316 315 316 316 315 311 318 322 320 323 328 328 328 327 329 343 348 348 350 352 352 351 349 345 343 340 341
312 312 314 316 317 316 313 315 314 314 311 314 323 325 326 326 326 325 326 328 331 344 342 344 347 347 348 345 344 342 340 340
309 310 315 316 317 315 314 314 314 312 312 314 326 324 325 326 326 328 327 330 332 341 343 344 341 339 338 337 337 337 337 337
311 311 312 314 318 314 313 314 313 316 310 317 321 324 326 326 327 327 328 327 329 330 333 337 335 332 330 331 332 333 333 333
312 310 311 317 316 318 314 314 318 317 310 312 322 325 326 325 324 324 325 325 327 328 325 328 330 333 329 331 331 331 331 331
310 310 312 318 315 318 319 316 316 316 316 319 323 324 322 322 321 322 324 324 326 324 328 330 331 330 330 333 331 330 330 329
315 315 314 316 316 317 316 315 314 315 318 319 320 321 320 320 319 320 321 323 323 325 331 332 329 332 333 331 332 331 330 328
314 315 316 315 315 318 314 312 315 313 315 318 319 320 319 319 319 321 323 324 323 327 332 332 331 331 330 330 329 329 329 329
313 314 315 315 317 314 314 315 317 316 316 318 318 319 319 319 320 321 322 322 328 330 333 335 333 331 330 330 330 329 329 330
315 315 317 317 314 314 314 317 317 317 317 317 318 319 322 321 321 323 322 324 329 332 334 336 334 332 332 331 330 331 330 331
315 315 317 313 314 313 315 316 314 316 317 317 316 319 321 321 322 322 322 327 328 331 333 334 334 335 333 335 333 331 331 329
314 314 314 315 310 311 316 317 315 315 316 317 319 320 320 322 324 323 323 329 327 330 329 333 335 335 336 335 336 333 333 333
313 314 314 312 305 314 317 316 315 315 317 317 319 320 321 323 325 325 325 325 329 329 330 334 335 334 334 335 335 335 335 331
308 315 313 311 307 314 317 316 315 316 316 317 318 320 322 323 325 325 326 328 326 328 330 333 335 335 335 337 337 338 333 329
306 312 313 310 309 314 316 316 315 315 317 317 318 319 322 324 325 325 326 330 327 330 333 334 333 332 335 339 337 338 330 327
310 313 311 310 310 312 316 316 314 315 315 318 319 321 323 325 325 324 325 330 329 327 332 330 329 330 331 335 333 334 334 331
309 312 311 310 309 312 313 313 315 315 315 318 319 319 321 324 325 324 326 328 329 328 329 331 330 336 334 336 335 331 334 334
306 310 312 309 306 309 313 314 315 315 317 319 320 319 321 323 324 324 323 328 328 327 328 332 336 336 334 336 337 335 333 332
307 306 301 309 298 306 310 310 312 314 316 318 320 321 321 323 323 323 323 328 328 329 329 332 335 332 333 333 333 336 335 336
Wind_Speed
11 13 13 11 8 11 7 0 8 5 2 5 8 4 4 9 7 5 4 7 7 16 14 13 13 12 12 12 12 13 14 15
10 18 9 6 13 10 13 5 5 6 8 7 7 3 2 7 4 4 5 1 15 12 9 11 13 13 12 13 13 14 15 16
16 15 9 4 10 10 9 8 3 2 7 1 8 4 4 4 3 4 6 6 3 8 3 7 10 10 10 9 10 12 13 14
14 7 8 4 5 7 11 7 2 4 6 2 13 7 5 4 3 3 4 3 4 9 6 3 3 2 3 5 6 9 11 12
16 16 13 5 5 11 11 12 7 4 8 2 8 7 5 4 3 3 1 3 2 5 2 10 8 6 2 5 8 10 12 13
15 13 12 11 1 11 7 8 5 3 6 9 8 10 8 7 7 6 7 5 4 6 7 5 6 10 3 7 8 10 13 14
18 16 10 12 12 3 4 10 6 5 7 6 6 10 9 8 7 5 3 5 6 6 6 6 7 5 4 9 6 9 10 9
15 14 12 16 17 17 6 10 8 9 7 4 7 10 10 10 8 6 4 4 5 3 5 7 7 6 8 6 5 8 8 9
17 15 14 15 17 9 8 10 8 3 7 14 12 11 11 9 2 5 4 4 6 4 4 6 6 5 5 2 3 5 7 7
16 19 16 13 10 9 7 10 4 5 4 8 13 12 12 9 4 4 3 4 4 3 4 5 5 6 6 4 4 6 7 8
22 17 15 13 9 11 11 6 4 4 7 10 12 11 9 6 3 1 3 3 4 4 4 4 5 7 5 6 6 6 6 5
17 17 15 11 16 7 12 1 4 9 11 10 9 12 10 7 6 3 1 2 3 4 4 5 5 6 4 5 8 9 3 4
18 18 16 12 17 16 12 9 10 9 9 13 13 12 11 10 6 4 3 1 3 5 3 4 8 7 5 7 6 6 6 4
21 23 15 10 19 16 14 12 12 13 13 11 12 10 11 8 7 5 4 2 2 4 4 5 7 7 5 6 5 5 3 2
20 12 14 17 20 19 7 10 12 12 12 11 11 12 11 9 9 6 4 4 2 3 5 6 7 6 5 5 4 2 2 2
17 14 13 16 19 19 16 16 15 16 12 11 13 15 13 11 9 7 5 4 2 3 4 6 9 4 3 4 2 2 3 3
13 6 14 10 16 20 20 15 17 17 12 12 13 13 14 12 10 7 5 5 4 1 3 5 7 6 6 4 3 2 3 7
15 14 9 13 19 20 20 21 19 17 14 10 13 14 15 14 12 9 7 5 4 2 2 4 5 5 5 3 5 3 5 3
17 15 10 13 23 22 15 11 13 12 7 10 14 16 16 15 13 10 8 6 4 2 2 3 5 1 3 3 2 2 4 5
15 15 13 14 16 16 16 9 10 13 13 11 13 16 16 15 13 10 8 7 5 3 1 4 6 4 4 3 4 3 2 4
Wind_Direction
244 240 271 337 19 1 348 250 253 255 139 351 52 84 27 73 150 183 198 178 160 174 197 215 229 236 244 258 267 274 274 271
253 282 302 347 334 339 312 210 239 306 299 126 66 122 91 121 188 233 245 153 126 148 184 227 240 243 250 262 272 276 276 274
257 261 289 328 312 340 301 290 302 116 301 148 137 116 144 165 230 267 299 337 38 120 167 246 254 258 263 278 283 279 284 285
272 301 261 299 4 314 289 290 249 268 304 19 117 167 172 179 201 323 331 0 296 127 160 128 73 26 346 328 306 295 289 287
286 290 298 306 50 287 313 304 314 40 302 68 166 162 158 177 178 219 214 218 274 294 212 181 182 146 63 330 313 304 296 288
274 278 279 297 141 269 280 312 14 329 275 337 118 143 178 205 189 205 193 253 323 256 279 301 286 161 90 310 309 311 301 289
269 283 305 305 289 254 153 280 211 274 279 38 128 168 199 209 210 234 265 244 253 297 330 314 285 288 246 255 269 290 285 280
288 304 302 302 298 300 246 245 224 222 236 205 196 196 215 208 227 211 263 312 311 317 322 300 278 276 278 292 318 308 303 292
289 290 286 304 288 292 277 270 303 286 244 182 206 212 226 236 251 348 349 294 349 325 284 291 304 313 289 332 327 284 279 263
280 269 268 277 304 291 268 272 335 308 295 193 211 216 221 232 199 220 333 312 330 306 285 276 297 304 301 338 300 254 243 230
260 254 258 275 269 265 284 297 279 250 239 233 220 221 210 224 185 264 272 343 318 332 309 287 290 302 328 295 263 273 250 228
258 253 257 239 258 178 267 170 276 248 248 237 230 213 193 199 209 211 252 291 326 307 295 300 307 289 262 259 262 256 245 264
253 253 250 229 254 245 250 214 250 251 240 242 217 206 198 193 194 215 226 237 304 240 259 281 259 260 288 283 265 278 314 343
249 224 224 218 255 258 216 239 252 247 231 238 223 208 196 179 183 185 243 236 265 312 312 312 303 292 277 286 270 281 305 338
247 199 221 206 257 277 235 271 265 276 267 231 212 203 194 182 183 189 205 232 282 341 299 321 292 271 308 309 272 249 183 236
248 212 199 251 251 254 246 247 267 262 243 231 213 196 188 195 181 180 198 201 221 290 300 323 283 167 10 325 273 223 165 226
283 286 247 252 276 282 286 274 265 267 235 229 209 190 182 189 182 180 200 208 216 332 308 326 308 328 20 357 304 177 237 235
262 272 271 281 284 283 288 273 270 264 231 215 196 188 177 183 187 186 192 194 190 226 353 325 337 12 353 5 9 23 41 10
262 276 252 285 268 265 262 268 267 255 230 206 196 188 180 183 188 183 190 182 165 132 58 13 323 38 45 32 295 282 335 42
268 274 264 271 294 294 275 274 267 221 205 225 182 182 181 183 185 187 180 171 150 131 85 114 359 42 346 3 339 17 353 351